Location: Mauries
(43.6188°N, 0.3322°W)
Time: 05:01:30
(UTC+00:00)

IRS-1D - Pass Details

Date: 14 January 2026
Orbit: 737 x 810 km, 98.8° (Epoch: 14 February)

Event Time Altitude Azimuth Distance (km) Brightness Sun altitude
Rises 05:56:23 0° 6° (N) 3,328 6.7 -16.9°
Reaches altitude 10° 05:58:51 10° 359° (N) 2,399 5.9 -16.5°
Maximum altitude 06:03:43 38° 293° (WNW) 1,218 4.0 -15.7°
Drops below altitude 10° 06:08:35 10° 226° (SW) 2,390 5.8 -14.8°
Sets 06:11:02 0° 219° (SW) 3,314 6.6 -14.4°
